Regional Weather Roundup
Issued by NWS

Home | Current Version | Previous Version | Text Only | Print | Product List | Glossary Off
Versions: 1 2 3 4 5 6 7 8 9 10 11 12 13 14 15 16 17 18 19 20 21 22 23 24 25 26 27 28 29 30 31 32 33 34 35 36 37 38 39 40 41 42 43 44 45 46 47 48 49 50

292
ASUS45 KBOU 301210
RWRCO

WEATHER ROUNDUP FOR COLORADO
NATIONAL WEATHER SERVICE DENVER/BOULDER CO
600 AM MDT FRI SEP 30 2016

NOTE: "FAIR" INDICATES FEW OR NO CLOUDS BELOW 12000 FEET WITH NO
SIGNIFICANT WEATHER AND/OR OBSTRUCTIONS TO VISIBILITY.

COZ001>005-013-030-031-301300-
...NORTHWEST COLORADO...

CITY           SKY/WX    TMP DP  RH WIND       PRES   REMARKS
CRAIG          CLOUDY    53  50  89 CALM      30.35S
HAYDEN         CLOUDY    52  46  82 SE6       30.36S
MEEKER         CLOUDY    52  52 100 CALM      30.36S
MOUNT WERNER   NOT AVBL
STEAMBOAT SPGS CLOUDY    49  49  98 E5        30.37F
WALDEN           N/A     48  45  87 S5        30.43S
$$

COZ006>008-011-301300-
...WEST CENTRAL VALLEYS...

CITY           SKY/WX    TMP DP  RH WIND       PRES   REMARKS
GRAND JUNCTION CLOUDY    57  55  93 E3        30.31S
MONTROSE       CLOUDY    54  52  93 CALM      30.37S
EAGLE          CLOUDY    52  48  87 CALM      30.39S
RIFLE          CLOUDY    56  55  97 CALM      30.34S
DELTA          NOT AVBL
NUCLA          FOG       54  52  94 CALM      30.40S VSB 3/4
$$

COZ017>023-064>068-301300-
...SOUTHWEST COLORADO...

CITY           SKY/WX    TMP DP  RH WIND       PRES   REMARKS
DURANGO        CLOUDY    50  48  93 CALM      30.38S
CORTEZ         MOCLDY    48  46  93 E5        30.36S
PAGOSA SPRINGS CLOUDY    50  47  90 CALM      30.44R
TELLURIDE      CLOUDY    46  46  98 CALM      30.51R
WOLF CREEK PAS FOG       34  34 100 SW12      30.64S VSB<1/4 WCI  25
$$

COZ009-010-012-014-032>034-037-058>063-301300-
...CENTRAL COLORADO...

CITY           SKY/WX    TMP DP  RH WIND       PRES   REMARKS
ASPEN          CLOUDY    50  46  86 CALM      30.41S
BUENA VISTA    CLOUDY    52  35  53 N3        30.40R
COPPER MTN     SNOW      41  36  81 NW10      30.59F VSB<1/4
BERTHOUD PASS  HAZE      32  19  59 N15G21    30.62F VSB<1/4 WCI  22
COTTONWOOD PAS CLOUDY    52  36  54 W9        30.49S
GUNNISON       CLOUDY    48  43  82 N3        30.42S
KREMMLING      CLOUDY    46  39  76 CALM      30.41S
LEADVILLE      MOCLDY    41  35  79 N7        30.48R
SALIDA         CLOUDY    58  39  50 SW10      30.45S
SUNLIGHT       LGT RAIN  43  43 100 SW7       30.58R
WILKERSON PASS FAIR      41  32  70 SW16G23   30.56F
$$

COZ069>075-301300-
...SAN LUIS VALLEY/SANGRE DE CRISTO MOUNTAINS...

CITY           SKY/WX    TMP DP  RH WIND       PRES   REMARKS
ALAMOSA        FAIR      46  39  76 CALM      30.39S
LA VETA PASS   FAIR      45  36  70 MISG      30.47F
SAGUACHE       FAIR      45  36  70 CALM      30.42S
$$

COZ035-036-038>040-301300-
...NORTHERN COLORADO FRONT RANGE...

CITY           SKY/WX    TMP DP  RH WIND       PRES   REMARKS
DENVER INTL AP MOCLDY    58  40  51 W14       30.21R
DMNS CITY PARK   N/A     57  42  57 W3        30.23R
AURORA         MOCLDY    58  41  54 W3        30.23S
FRONT RANGE AP NOT AVBL
ERIE MUNI ARPT MOCLDY    55  42  60 W3        30.22S
BOULDER MUN AP NOT AVBL
CENTENNIAL     CLOUDY    60  41  49 CALM      30.24R
BROOMFIELD     FAIR      59  41  51 NW9       30.25R
FORT COLLINS   FAIR      55  43  62 N3        30.22S
LONGMONT       CLOUDY    58  44  59 SW3       30.23R
$$

COZ041-046-047-076>085-087-088-301300-
...PIKES PEAK/PALMER DIVIDE AND SOUTHERN FOOTHILLS...

CITY           SKY/WX    TMP DP  RH WIND       PRES   REMARKS
COLO. SPRINGS  MOCLDY    54  39  57 CALM      30.26S
A. F. ACADEMY  FAIR      49  37  63 N5        30.25F
SCHRIEVER AFB  NOT AVBL
ELLICOTT       NOT AVBL
FALCON         FAIR      58  33  38 NW9       30.29R
FORT CARSON    FAIR      53  37  54 W3        30.23R
LIMON          FAIR      39  37  92 N3        30.22F
MONUMENT HILL  MOCLDY    54  36  50 W6        30.32S
TRINIDAD       FAIR      57  35  43 NW8       30.24S
$$

COZ042>045-048>051-090-091-301300-
...NORTHEAST COLORADO...

CITY           SKY/WX    TMP DP  RH WIND       PRES   REMARKS
GREELEY ARPT   FAIR      54  41  62 N5        30.21R
AKRON          FAIR      45  39  79 SE6       30.19F
BURLINGTON     FAIR      46  38  73 SE14      30.20F
WRAY           FAIR      41  37  87 E5        30.21S
STERLING       FAIR      45  39  81 NE7       30.18S
HOLYOKE        NOT AVBL
FORT MORGAN    FAIR      47  39  74 N6        30.18S
$$

COZ086-089-092>099-301300-
...SOUTHEAST COLORADO...

CITY           SKY/WX    TMP DP  RH WIND       PRES   REMARKS
PUEBLO         FAIR      51  39  63 SW5       30.19S
LA JUNTA       FAIR      48  42  80 NE7       30.16S
LAMAR          FAIR      45  40  82 E10       30.15S
SPRINGFIELD      N/A     48  43  82 S10       30.19F
$$




USA.gov is the U.S. government's official web portal to all federal, state and local government web resources and services.